EW6358 Weather Reports


Display with metric or nautical units.
time (UTC)temp
F
wind
direction
speed
MPH
gust
MPH
rain 1hr
in
rain 24hr
in
rain mn
in
humidity
%
barometer
mb
20260505022507 59 126 0.0 0.0 0.00 0.00 0.00 73 1014.1
20260505022009 59 126 0.0 0.0 0.00 0.00 0.00 73 1014.1
20260505021526 59 126 0.0 0.0 0.00 0.00 0.00 73 1014.0
20260505021005 59 126 0.0 0.0 0.00 0.00 0.00 73 1013.9
20260505020509 60 126 0.0 0.0 0.00 0.00 0.00 72 1014.0
20260505020030 60 126 0.0 0.0 0.00 0.00 0.00 72 1013.9
20260505015504 60 126 0.0 0.0 0.00 0.00 0.00 72 1013.9
20260505015006 61 126 0.0 0.0 0.00 0.00 0.00 72 1013.8
20260505014520 61 126 0.0 0.0 0.00 0.00 0.00 71 1013.8
20260505014004 61 126 0.0 0.0 0.00 0.00 0.00 71 1013.8
20260505013507 62 126 0.0 0.0 0.00 0.00 0.00 70 1013.8
20260505013029 62 126 0.0 0.0 0.00 0.00 0.00 68 1013.7
20260505012508 62 126 0.0 0.0 0.00 0.00 0.00 66 1013.6
20260505012007 63 126 0.0 0.0 0.00 0.00 0.00 67 1013.5
20260505011534 63 126 0.0 0.0 0.00 0.00 0.00 66 1013.6
20260505011009 64 126 0.0 0.0 0.00 0.00 0.00 64 1013.6
20260505010504 64 126 0.0 0.0 0.00 0.00 0.00 62 1013.7
20260505010017 65 126 0.0 0.0 0.00 0.00 0.00 61 1013.7
20260505005505 66 126 0.0 0.0 0.00 0.00 0.00 60 1013.6
20260505005009 66 126 0.0 0.0 0.00 0.00 0.00 61 1013.7
20260505004515 67 126 0.0 0.0 0.00 0.00 0.00 58 1013.7
20260505004009 67 126 0.0 0.0 0.00 0.00 0.00 56 1013.7
20260505003507 68 126 0.0 0.0 0.00 0.00 0.00 53 1013.7
20260505003022 69 126 0.0 0.0 0.00 0.00 0.00 50 1013.8
20260505002500 70 126 0.0 0.0 0.00 0.00 0.00 49 1013.8
20260505002002 71 126 0.0 0.0 0.00 0.00 0.00 49 1013.8
20260505001508 72 126 0.0 0.0 0.00 0.00 0.00 49 1013.8
20260505001003 72 126 0.0 0.0 0.00 0.00 0.00 42 1013.6
20260505000505 73 126 0.0 2.0 0.00 0.00 0.00 45 1013.6
20260505000012 73 126 0.0 2.0 0.00 0.00 0.00 41 1013.7
20260504235506 74 97 0.0 2.0 0.00 0.00 0.00 39 1013.7
20260504235005 75 172 0.0 3.0 0.00 0.00 0.00 40 1013.6
20260504234514 75 176 0.0 3.0 0.00 0.00 0.00 38 1013.6
20260504234004 75 217 1.0 2.0 0.00 0.00 0.00 38 1013.7
20260504233507 75 217 0.0 4.0 0.00 0.00 0.00 37 1013.8
20260504233020 75 223 2.0 8.0 0.00 0.00 0.00 36 1013.8
20260504232511 75 209 4.0 8.0 0.00 0.00 0.00 35 1013.8
20260504232012 76 207 4.0 7.0 0.00 0.00 0.00 35 1013.9
20260504231504 76 205 2.0 5.0 0.00 0.00 0.00 34 1013.9
20260504231004 76 244 3.0 8.0 0.00 0.00 0.00 33 1013.9
20260504230504 76 205 3.0 6.0 0.00 0.00 0.00 34 1013.9
20260504230039 76 267 3.0 10.0 0.00 0.00 0.00 35 1013.9
20260504225504 77 211 6.0 10.0 0.00 0.00 0.00 33 1014.0
20260504225012 77 227 4.0 6.0 0.00 0.00 0.00 32 1014.0
20260504224513 77 241 3.0 6.0 0.00 0.00 0.00 33 1014.0
20260504224008 77 226 3.0 9.0 0.00 0.00 0.00 33 1014.0
20260504223504 77 234 5.0 9.0 0.00 0.00 0.00 30 1014.0
20260504223020 77 222 3.0 8.0 0.00 0.00 0.00 31 1014.0
20260504222504 77 205 5.0 7.0 0.00 0.00 0.00 30 1014.0
20260504222013 77 223 3.0 12.0 0.00 0.00 0.00 32 1014.0
20260504221538 77 236 6.0 12.0 0.00 0.00 0.00 29 1014.1
20260504221008 78 233 3.0 8.0 0.00 0.00 0.00 31 1014.1
20260504220504 78 281 3.0 8.0 0.00 0.00 0.00 29 1014.1
20260504220007 77 186 2.0 11.0 0.00 0.00 0.00 31 1014.2
20260504215512 77 186 4.0 11.0 0.00 0.00 0.00 31 1014.2
20260504215006 77 186 4.0 8.0 0.00 0.00 0.00 31 1014.2
20260504214527 77 186 4.0 8.0 0.00 0.00 0.00 30 1014.1
20260504214008 77 186 5.0 10.0 0.00 0.00 0.00 28 1014.1
20260504213513 77 186 5.0 10.0 0.00 0.00 0.00 29 1014.2
20260504213018 78 186 5.0 10.0 0.00 0.00 0.00 30 1014.2
20260504212516 78 186 2.0 8.0 0.00 0.00 0.00 28 1014.2
20260504212009 78 186 4.0 9.0 0.00 0.00 0.00 28 1014.3
20260504211520 77 186 4.0 11.0 0.00 0.00 0.00 29 1014.3
20260504211010 77 186 6.0 11.0 0.00 0.00 0.00 29 1014.3
20260504210509 77 186 4.0 10.0 0.00 0.00 0.00 29 1014.3
20260504210030 77 186 5.0 10.0 0.00 0.00 0.00 31 1014.3
20260504205510 77 186 6.0 10.0 0.00 0.00 0.00 30 1014.3
20260504205010 77 186 5.0 8.0 0.00 0.00 0.00 30 1014.3
20260504204529 77 186 3.0 10.0 0.00 0.00 0.00 28 1014.4
20260504204003 77 186 4.0 12.0 0.00 0.00 0.00 28 1014.4
20260504203512 77 186 4.0 12.0 0.00 0.00 0.00 31 1014.3
20260504203042 77 186 4.0 10.0 0.00 0.00 0.00 30 1014.5
20260504202504 77 186 6.0 10.0 0.00 0.00 0.00 29 1014.6
20260504202007 77 186 3.0 9.0 0.00 0.00 0.00 30 1014.5
20260504201528 77 186 5.0 9.0 0.00 0.00 0.00 31 1014.7
20260504201011 77 186 3.0 9.0 0.00 0.00 0.00 33 1014.7
20260504200518 77 186 2.0 9.0 0.00 0.00 0.00 33 1014.9
20260504200024 77 186 3.0 8.0 0.00 0.00 0.00 33 1014.9
20260504195507 77 186 5.0 8.0 0.00 0.00 0.00 31 1015.0
20260504195010 77 186 5.0 8.0 0.00 0.00 0.00 31 1015.0
20260504194537 77 186 3.0 8.0 0.00 0.00 0.00 31 1015.2
20260504194008 77 186 3.0 8.0 0.00 0.00 0.00 30 1015.2
20260504193504 77 186 5.0 8.0 0.00 0.00 0.00 31 1015.2
20260504193028 76 186 3.0 8.0 0.00 0.00 0.00 32 1015.2
20260504192505 76 186 4.0 8.0 0.00 0.00 0.00 30 1015.4
20260504192012 76 186 2.0 6.0 0.00 0.00 0.00 33 1015.4
20260504191532 76 186 2.0 10.0 0.00 0.00 0.00 31 1015.4
20260504191007 76 186 3.0 10.0 0.00 0.00 0.00 33 1015.5
20260504190507 76 186 6.0 9.0 0.00 0.00 0.00 34 1015.5
20260504190030 76 186 0.0 7.0 0.00 0.00 0.00 31 1015.7
20260504185509 76 186 5.0 10.0 0.00 0.00 0.00 35 1015.8
20260504185012 76 186 4.0 10.0 0.00 0.00 0.00 34 1015.8
20260504184527 76 186 6.0 10.0 0.00 0.00 0.00 34 1015.8
20260504184009 76 186 0.0 8.0 0.00 0.00 0.00 32 1015.9
20260504183511 76 186 5.0 11.0 0.00 0.00 0.00 36 1015.9
20260504183012 75 186 3.0 11.0 0.00 0.00 0.00 33 1016.0
20260504182503 75 186 4.0 7.0 0.00 0.00 0.00 37 1016.0
20260504182003 75 186 2.0 6.0 0.00 0.00 0.00 34 1016.0
20260504181510 75 186 3.0 8.0 0.00 0.00 0.00 34 1016.0
20260504181000 75 186 5.0 8.0 0.00 0.00 0.00 34 1016.2
20260504180500 75 186 0.0 5.0 0.00 0.00 0.00 38 1016.3
20260504180005 75 186 2.0 5.0 0.00 0.00 0.00 35 1016.3
20260504175504 75 186 2.0 5.0 0.00 0.00 0.00 35 1016.3
20260504175003 75 186 2.0 7.0 0.00 0.00 0.00 35 1016.4
20260504174505 74 186 2.0 7.0 0.00 0.00 0.00 35 1016.4
20260504174003 74 186 4.0 8.0 0.00 0.00 0.00 39 1016.4
20260504173504 74 186 3.0 8.0 0.00 0.00 0.00 38 1016.4
20260504173015 74 186 3.0 6.0 0.00 0.00 0.00 36 1016.5
20260504172503 73 186 1.0 6.0 0.00 0.00 0.00 39 1016.5
20260504172004 73 186 2.0 8.0 0.00 0.00 0.00 38 1016.6
20260504171521 73 186 4.0 8.0 0.00 0.00 0.00 39 1016.8
20260504171004 73 186 2.0 7.0 0.00 0.00 0.00 39 1016.8
20260504170509 73 186 2.0 7.0 0.00 0.00 0.00 39 1016.9
20260504151005 68 186 5.0 9.0 0.00 0.00 0.00 48 1017.6
20260504150506 68 186 5.0 8.0 0.00 0.00 0.00 53 1017.5
20260504141018 65 186 4.0 7.0 0.00 0.00 0.00 54 1017.9
20260504140503 64 186 4.0 7.0 0.00 0.00 0.00 52 1017.9
20260504130512 55 186 0.0 2.0 0.00 0.00 0.00 80 1018.0
20260504110513 0 0.0 0.0 0.00 0.00 0.00 1017.3
20260504100511 0 0.0 0.0 0.00 0.00 0.00 1017.2
20260504081530 0 0.0 0.0 0.00 0.00 0.00 1017.4
20260504081015 0 0.0 0.0 0.00 0.00 0.00 1017.4
20260504080510 0 0.0 0.0 0.00 0.00 0.00 1017.4
20260504050517 0 0.0 0.0 0.00 0.00 0.00 1018.5
20260504045510 0 0.0 0.0 0.00 0.00 0.00 1018.6
20260504045016 0 0.0 0.0 0.00 0.00 0.00 1018.6
20260504044532 0 0.0 0.0 0.00 0.00 0.00 1018.6
20260504044011 0 0.0 0.0 0.00 0.00 0.00 1018.6
20260504043510 0 0.0 0.0 0.00 0.00 0.00 1018.6
20260504043035 0 0.0 0.0 0.00 0.00 0.00 1018.6
20260504042512 0 0.0 0.0 0.00 0.00 0.00 1018.6
20260504042013 0 0.0 0.0 0.00 0.00 0.00 1018.8
20260504041531 0 0.0 0.0 0.00 0.00 0.00 1018.9
20260504041010 0 0.0 0.0 0.00 0.00 0.00 1018.9
20260504040511 0 0.0 0.0 0.00 0.00 0.00 1019.0
20260504040056 0 0.0 0.0 0.00 0.00 0.00 1019.0
20260504035512 0 0.0 0.0 0.00 0.00 0.00 1019.0
20260504035016 0 0.0 0.0 0.00 0.00 0.00 1019.1
20260504034533 0 0.0 0.0 0.00 0.00 0.00 1019.1
20260504034011 0 0.0 0.0 0.00 0.00 0.00 1019.1
20260504033511 0 0.0 0.0 0.00 0.00 0.00 1019.1
20260504033034 0 0.0 0.0 0.00 0.00 0.00 1019.0
20260504032512 0 0.0 0.0 0.00 0.00 0.00 1019.0
20260504032013 0 0.0 0.0 0.00 0.00 0.00 1019.1
20260504031536 0 0.0 0.0 0.00 0.00 0.00 1019.1
20260504031008 0 0.0 0.0 0.00 0.00 0.00 1019.1
20260504030510 0 0.0 0.0 0.00 0.00 0.00 1019.1
20260504030032 0 0.0 0.0 0.00 0.00 0.00 1019.1
20260504025510 0 0.0 0.0 0.00 0.00 0.00 1019.0
20260504025010 0 0.0 0.0 0.00 0.00 0.00 1018.9
20260504024531 0 0.0 0.0 0.00 0.00 0.00 1019.0
20260504024013 0 0.0 0.0 0.00 0.00 0.00 1019.0
20260504023513 0 0.0 0.0 0.00 0.00 0.00 1019.0
20260504023031 0 0.0 0.0 0.00 0.00 0.00 1018.8